User: anonymous   Login
Location: Unspecified
(0.0000°N, 0.0000°E)
Time: 10:58:13
(UTC+01:00)
Language:

OPAL - Orbit

View from above orbital plane
View from above orbital plane
View from above satellite
View from above satellite

Ground track
Ground track

The orbit data is extracted from the following two-line orbital elements,

1 26063U 00004C   16345.48427358  .00000019  00000-0  26407-4 0  9994
2 26063 100.2101 308.0872 0037048 119.8431 240.6440 14.36645172884291
Epoch (UTC): 10 December 2016 11:37:21
Eccentricity: 0.0037048
inclination: 100.2101°
perigee height: 743 km
apogee height: 796 km
right ascension of ascending node: 308.0872°
argument of perigee: 119.8431°
revolutions per day: 14.36645172
mean anomaly at epoch: 240.6440°
orbit number at epoch: 88429

The dashed part of the orbit path shows where the satellite is in the earth's shadow,  

DLR